Lapse_Rate
6.4 6.5 6.6 6.6 6.8 6.9 7.0 7.2 7.2 7.3 7.4 7.3 7.2 7.2 7.2 7.3 7.2 7.0 6.9 6.8 6.8 6.7 6.8 7.0 7.2 7.3 7.3 7.3 7.2 7.2 7.4 7.4 7.3 7.0 6.9 6.7 6.5 6.3 6.1 6.1 5.2 5.0 4.2 5.6
6.4 6.5 6.5 6.5 6.6 6.8 6.9 7.0 7.1 7.2 7.3 7.2 7.4 7.3 7.2 7.2 7.3 7.4 7.2 7.1 7.0 7.0 6.9 6.9 6.8 7.0 7.1 7.3 7.3 7.3 7.2 7.0 6.9 6.6 6.4 6.5 6.4 6.5 6.3 6.0 5.7 5.4 4.3 6.0
6.1 6.2 6.4 6.4 6.5 6.6 6.7 6.7 6.8 7.2 7.3 7.2 7.2 7.3 7.3 7.3 7.2 7.1 7.2 7.4 7.3 7.0 7.0 7.1 7.0 7.0 6.9 6.8 6.9 7.0 7.0 7.1 7.2 7.2 7.1 6.9 6.6 6.7 6.3 5.9 5.2 5.6 5.7 6.6
5.8 5.9 6.1 6.3 6.3 6.3 6.4 6.4 6.5 6.7 6.9 7.2 7.1 7.1 7.1 7.3 7.3 7.1 7.2 7.0 7.2 7.3 7.1 6.8 6.9 7.0 6.9 6.8 6.7 6.7 6.5 6.7 6.7 6.8 6.6 6.4 6.3 6.4 6.2 5.9 6.4 5.5 6.8 6.0
5.4 5.6 5.8 5.9 6.1 6.3 6.2 6.1 6.2 6.4 6.5 6.7 6.9 6.9 7.1 7.2 7.2 7.1 7.1 7.1 7.0 6.8 6.9 7.0 7.1 6.7 6.6 6.4 6.5 6.5 6.3 6.0 6.1 6.1 6.1 5.8 5.7 6.3 5.9 6.0 5.9 5.5 6.0 5.7
4.9 5.1 5.4 5.5 5.6 5.7 5.8 5.9 6.0 6.0 6.2 6.4 6.5 6.7 6.8 6.9 6.9 6.9 6.9 6.8 6.7 6.6 6.6 6.3 6.1 6.2 6.4 6.3 6.0 5.8 5.6 5.5 5.3 5.1 5.4 4.9 4.6 6.9 6.8 6.6 6.4 6.1 5.4 5.7
4.6 4.6 4.9 5.2 5.2 5.4 5.4 5.5 5.5 5.6 5.7 6.0 6.2 6.3 6.4 6.4 6.5 6.5 6.7 6.7 6.5 6.4 6.3 6.0 6.0 6.0 5.8 5.8 5.7 5.7 5.7 5.6 5.2 5.1 5.1 3.2 5.6 5.8 5.9 5.9 5.8 5.7 5.3 5.1
4.5 4.4 4.8 4.5 4.7 5.4 5.3 5.3 5.3 5.3 5.2 5.7 6.0 6.1 6.1 6.2 6.2 6.2 6.2 6.2 6.2 6.2 6.1 5.9 5.8 5.9 5.9 6.2 6.2 6.2 6.3 6.0 5.4 5.3 5.2 5.4 5.8 6.0 5.7 5.6 5.3 5.5 5.2 4.9
4.1 4.0 4.5 4.4 4.9 5.0 4.9 5.2 5.5 5.2 4.9 5.3 5.7 5.9 5.9 5.9 6.0 6.0 6.1 6.2 6.1 5.9 5.6 5.6 5.3 5.6 6.1 6.0 6.0 6.4 6.6 6.4 5.5 4.8 4.9 3.9 5.4 5.2 5.3 5.5 4.7 5.4 5.0 4.5
3.9 3.9 4.0 3.8 4.1 4.3 5.0 5.1 5.1 5.1 4.9 5.1 5.3 5.6 5.7 5.8 5.9 5.7 5.9 6.1 6.0 5.9 5.8 5.7 5.3 5.3 5.6 5.6 5.8 6.0 6.2 6.2 5.9 5.5 5.1 5.3 5.3 5.1 4.9 4.4 5.0 4.9 5.1 4.8
3.6 3.5 3.8 4.0 3.8 4.0 4.1 4.7 4.9 4.9 5.0 5.0 5.2 5.4 5.7 5.8 5.9 5.7 5.6 5.7 5.6 5.8 5.6 5.5 5.5 5.6 5.8 5.7 5.7 6.0 6.2 6.3 5.8 5.1 4.4 4.2 5.1 4.8 4.6 4.8 4.6 4.6 4.5 4.5
4.0 3.8 3.9 4.0 4.0 4.1 4.2 4.3 4.4 4.5 4.8 4.4 4.4 5.2 5.5 5.2 5.4 5.4 5.6 5.5 5.5 5.7 5.6 5.5 5.7 6.0 5.9 5.8 5.4 5.6 5.7 5.9 5.7 5.1 5.0 5.3 5.1 4.8 4.9 4.9 4.7 4.2 4.0 4.3
4.0 4.1 3.9 3.9 4.1 4.3 4.4 4.4 4.5 4.7 4.6 4.7 4.6 4.7 4.9 4.7 4.6 4.6 4.8 4.9 4.8 4.8 4.9 5.2 5.4 5.3 5.2 5.2 5.0 5.0 5.0 5.1 5.1 5.2 5.2 5.3 5.2 5.1 4.8 4.7 4.6 4.5 4.6 4.5
4.4 4.3 4.3 4.3 4.2 4.0 4.0 4.2 4.4 4.6 4.6 4.7 4.7 4.5 4.4 4.6 4.5 4.6 4.7 4.6 4.8 4.8 5.0 5.1 5.2 5.1 5.0 5.0 5.1 5.0 5.1 5.2 5.2 5.2 5.2 5.5 5.4 5.0 4.4 4.3 4.6 4.7 4.8 4.9
5.7 5.6 5.5 5.3 5.0 4.7 4.3 4.2 4.3 4.6 4.7 4.7 4.8 3.9 4.0 4.2 4.4 4.7 4.6 4.9 4.8 5.0 5.1 5.2 5.4 5.3 5.3 5.2 5.2 5.2 5.3 5.3 5.3 5.4 5.5 5.5 5.3 5.2 5.2 5.3 5.2 5.0 5.0 4.9
7.1 6.8 6.5 6.4 6.5 6.3 5.7 5.0 5.0 4.7 4.6 4.5 4.5 4.9 5.2 5.1 5.0 4.9 4.7 4.8 5.2 5.3 5.3 5.3 5.2 5.4 5.6 5.8 5.7 5.6 5.4 5.1 5.2 5.4 5.3 5.3 5.2 5.3 5.1 4.9 4.8 4.7 4.5 4.2
7.6 7.6 7.7 7.3 6.8 6.4 6.1 6.0 5.7 5.6 5.6 5.2 5.0 4.9 4.8 5.0 5.3 5.3 5.2 5.0 5.1 5.6 5.3 5.5 5.8 5.6 5.8 5.7 5.6 5.1 5.1 5.2 5.2 5.2 5.3 5.2 4.9 4.9 4.8 4.7 4.6 4.6 4.4 4.3
8.0 8.0 8.0 7.9 7.7 7.3 7.1 6.4 6.3 6.1 5.9 5.7 5.5 5.1 5.1 5.0 5.4 5.7 5.7 5.3 5.3 5.1 5.4 5.4 5.5 5.6 5.7 4.9 4.7 4.8 4.9 5.2 5.4 5.5 5.3 5.2 5.0 5.0 5.1 5.2 5.0 4.7 4.7 4.7
8.0 8.0 7.9 7.9 7.8 7.6 7.3 6.9 6.6 6.5 6.5 6.2 5.8 5.6 5.7 5.4 5.4 5.4 5.5 5.3 5.3 5.3 5.5 5.6 5.7 5.5 5.1 4.8 5.1 5.3 5.3 5.4 5.4 5.2 5.0 5.0 5.0 5.0 5.0 5.1 5.3 5.6 5.9 5.9
7.9 7.8 7.8 7.7 7.5 7.3 7.1 7.0 6.9 6.8 6.8 6.8 6.7 6.5 6.4 6.0 6.0 6.0 6.1 5.9 5.8 5.5 5.4 5.6 5.7 4.4 4.7 4.9 5.1 5.3 5.4 5.5 5.5 5.3 5.3 5.5 5.6 5.8 5.9 5.9 5.9 5.8 6.0 6.2
7.7 7.7 7.7 7.5 7.5 7.3 7.1 7.1 7.1 7.1 6.9 6.7 6.7 6.9 6.7 6.9 6.7 6.6 6.5 6.4 6.4 6.3 6.2 6.3 5.1 4.9 5.0 5.1 5.2 5.3 5.4 5.4 5.4 5.4 5.4 5.5 5.9 6.2 6.4 6.5 6.6 6.6 6.6 6.6
7.8 7.8 7.8 7.6 7.5 7.3 7.2 7.1 7.2 7.3 7.2 7.0 7.1 7.1 7.2 7.2 7.1 7.2 7.0 7.0 7.0 6.9 6.8 6.3 5.8 5.7 5.6 5.6 5.7 5.6 5.8 6.1 6.5 6.7 6.8 6.8 6.7 6.5 6.4 6.4 6.4 6.4 6.4 6.4
8.2 8.1 7.7 7.6 7.4 7.4 7.3 7.2 7.2 7.1 7.1 7.2 7.2 7.2 7.3 7.4 7.5 7.5 7.5 7.4 7.3 7.5 7.3 6.4 6.3 6.2 6.2 6.2 6.4 6.4 6.4 6.5 6.7 6.7 6.6 6.6 6.6 6.6 6.6 6.5 6.4 6.5 6.6 6.6
8.3 8.1 7.9 7.7 7.6 7.4 7.3 7.1 7.1 7.0 6.9 7.1 7.5 7.6 7.6 7.7 7.7 7.6 7.6 7.5 7.5 7.1 6.7 6.4 6.2 6.3 6.4 6.4 6.4 6.6 6.7 6.7 6.8 6.8 6.9 6.9 6.9 6.9 6.8 6.8 6.8 6.8 6.9 6.8
8.3 8.1 7.9 7.8 7.6 7.5 7.4 7.2 7.3 7.3 7.5 7.7 7.8 7.9 7.8 7.7 7.7 7.6 7.6 7.4 6.9 6.6 6.5 6.4 6.5 6.5 6.5 6.5 6.6 6.8 7.0 7.1 7.1 7.0 6.9 6.9 6.9 6.9 7.0 6.8 6.7 6.6 6.6 6.6
8.1 7.9 7.8 7.8 7.7 7.6 7.5 7.5 7.4 7.5 7.7 7.8 7.7 7.7 7.6 7.6 7.6 7.5 7.4 7.2 6.7 6.6 6.6 6.7 6.8 6.7 6.7 6.8 6.9 7.0 7.2 7.1 7.0 7.0 7.0 7.0 6.9 6.8 6.7 6.6 6.4 6.4 6.4 6.4
8.0 7.9 7.9 7.8 7.7 7.6 7.5 7.5 7.5 7.5 7.6 7.7 7.7 7.6 7.6 7.5 7.4 7.2 6.9 7.0 7.0 7.1 7.0 6.9 6.9 7.0 7.0 7.1 7.1 7.1 6.9 6.9 6.9 6.9 6.9 6.8 6.7 6.7 6.6 6.5 6.3 6.3 6.3 6.3
Wind_Speed
25 28 30 31 30 23 4 1 1 3 3 3 1 4 5 5 4 2 2 1 3 5 5 3 5 7 5 2 4 4 1 5 3 1 0 1 1 3 4 4 4 1 2 6
24 28 31 31 31 21 1 1 1 2 3 2 3 2 2 5 4 5 4 2 3 1 6 3 2 2 0 4 5 6 5 1 3 3 2 2 4 4 4 4 3 6 5 6
26 28 30 31 32 25 2 1 1 2 3 1 4 4 4 4 4 3 4 4 3 1 1 2 6 5 3 2 2 4 3 3 5 6 4 5 4 5 5 5 3 4 7 4
25 27 30 32 33 27 2 3 2 1 2 3 2 2 5 4 5 3 5 2 6 7 5 1 3 1 3 4 3 3 3 3 3 4 4 4 5 6 10 10 10 8 13 10
23 24 27 30 34 27 3 2 3 3 2 1 2 0 6 8 3 7 5 4 6 6 5 7 8 7 4 5 1 4 0 2 4 4 5 8 6 12 11 18 12 10 13 16
20 22 24 27 30 17 3 1 1 1 2 1 3 4 5 5 4 5 2 6 5 3 7 5 1 2 3 6 9 8 5 5 3 5 3 3 6 15 14 5 5 7 9 9
19 20 23 24 25 19 2 1 1 1 4 2 4 2 4 4 4 2 2 4 4 3 6 5 4 4 2 4 3 3 6 6 4 3 2 4 5 2 4 11 6 10 2 2
18 19 21 23 23 24 0 0 1 1 4 3 5 5 4 1 1 3 3 4 2 5 4 3 3 3 2 2 3 4 3 4 2 3 4 6 5 4 5 6 2 2 7 5
15 16 18 20 22 24 3 1 1 1 1 5 3 2 3 4 3 2 4 2 1 4 3 3 6 5 5 4 3 5 3 2 3 3 4 6 4 3 2 4 3 2 6 5
16 15 15 17 19 22 8 2 5 2 2 3 1 3 2 2 0 1 1 3 2 1 3 4 4 5 4 6 8 6 4 2 10 9 6 6 2 1 1 4 3 3 5 5
14 15 14 13 15 17 8 3 8 2 3 4 2 2 1 3 1 2 1 2 1 2 3 5 5 5 8 3 5 8 9 9 5 4 4 8 3 1 4 3 3 5 4 5
17 14 14 13 13 12 9 2 6 5 3 4 3 5 5 4 5 3 3 2 3 3 2 1 1 2 2 4 4 0 3 4 5 7 4 2 3 6 5 3 6 3 5 4
15 17 18 15 13 11 6 2 3 2 2 5 2 4 3 3 1 1 3 2 2 1 1 2 2 4 3 4 5 3 2 2 3 4 3 6 5 6 4 5 8 7 7 6
16 12 11 13 14 14 11 1 2 2 2 3 3 2 2 4 3 4 3 4 2 1 1 3 3 3 4 3 1 2 1 2 4 3 5 8 8 6 7 10 9 8 5 3
17 17 15 13 12 13 11 3 2 1 2 2 4 5 2 2 3 5 6 7 4 2 3 3 3 2 3 2 3 2 2 1 2 1 4 6 6 7 8 8 6 5 4 2
18 17 16 15 14 11 2 1 3 7 1 3 3 1 3 3 5 2 4 5 4 2 2 0 1 3 0 1 2 5 4 7 5 4 10 13 10 5 4 4 4 3 2 1
17 18 16 17 16 3 2 3 1 7 3 2 3 3 2 3 3 1 1 2 2 1 1 1 1 0 1 3 3 4 9 12 10 7 7 8 2 2 2 2 1 2 1 2
17 19 19 18 14 6 3 2 6 4 1 2 2 3 3 4 3 2 2 1 1 2 1 1 1 3 3 5 7 7 7 10 12 9 7 4 3 3 4 2 3 4 4 4
19 17 11 3 2 1 1 15 6 2 2 1 1 2 2 5 3 2 2 2 2 1 2 2 3 4 5 5 10 11 12 7 4 3 5 4 5 5 4 4 4 4 5 5
11 4 3 2 1 14 7 2 1 2 1 1 1 3 1 3 2 3 3 3 2 2 3 2 4 3 4 6 5 4 4 4 5 5 8 7 7 6 5 4 5 5 6 7
3 3 2 3 12 3 3 2 2 0 1 1 2 1 2 3 2 1 2 0 2 2 3 3 3 2 2 2 4 4 4 5 5 4 3 3 3 5 6 8 7 7 7 8
0 3 2 3 4 3 5 2 3 3 3 3 2 3 2 2 2 2 3 2 2 3 4 3 2 1 3 4 4 3 5 5 5 4 5 5 6 5 6 6 7 7 8 8
2 3 4 3 3 6 4 3 4 2 3 3 3 2 2 3 4 3 3 5 2 2 3 3 2 3 4 5 5 7 6 7 7 8 7 7 8 6 5 8 8 7 8 9
3 3 4 3 4 2 1 2 2 2 2 3 1 1 3 2 4 0 5 1 1 4 3 3 1 2 5 5 5 5 7 7 6 7 7 8 7 7 7 7 6 7 9 10
2 3 2 2 1 1 2 2 1 3 2 2 2 2 2 3 4 3 3 6 4 3 2 2 2 5 5 6 5 6 6 6 5 4 4 6 6 6 7 6 7 7 8 8
3 4 3 1 1 3 3 3 2 2 2 1 3 2 4 4 2 5 2 4 1 2 2 2 3 5 5 5 5 6 6 6 7 7 6 7 7 7 8 8 7 7 7 8
4 2 2 2 1 1 2 2 3 3 1 2 2 5 1 1 4 4 1 2 2 2 2 2 3 3 5 5 5 5 6 7 6 7 8 8 8 6 6 7 8 7 8 7
Wind_Direction
5 4 2 359 357 353 44 103 306 354 345 61 51 170 195 166 181 198 273 232 177 178 182 161 168 190 217 185 169 158 250 124 150 170 350 85 156 173 155 123 230 138 142 277
11 7 4 2 360 359 355 242 232 350 68 192 228 212 198 193 160 192 172 219 249 217 176 162 185 182 15 169 166 170 186 43 65 10 11 7 215 192 141 109 99 207 135 258
8 7 6 3 360 358 67 49 309 336 55 285 150 174 197 194 200 191 183 167 126 96 293 298 180 164 166 162 146 109 118 136 175 187 191 131 188 198 180 140 142 171 225 249
10 6 5 3 358 357 72 27 277 243 265 284 230 164 172 164 191 220 168 209 219 167 163 166 240 57 19 8 23 58 95 210 172 265 221 186 211 201 178 197 209 190 256 193
10 8 7 8 2 351 81 10 5 355 300 317 139 207 220 201 173 153 231 211 177 193 186 185 191 153 186 199 18 160 91 183 167 257 206 199 241 241 195 216 233 252 274 274
12 9 10 10 12 12 43 314 256 107 310 16 124 219 221 227 173 195 171 178 127 189 231 209 330 181 132 156 154 182 155 134 100 257 345 39 304 243 219 183 194 199 222 242
16 12 11 11 12 21 206 268 6 82 273 201 214 272 209 215 216 221 156 148 152 171 110 111 89 78 104 151 200 125 141 147 174 243 209 226 234 172 177 199 214 210 208 104
7 9 10 9 7 7 12 303 36 190 256 231 278 227 234 263 208 215 207 215 182 140 77 64 360 331 340 129 29 205 179 146 197 207 214 304 294 176 157 176 226 209 143 116
1 7 9 8 5 4 360 282 152 168 172 240 297 276 209 215 211 285 195 66 119 76 104 123 201 214 215 222 161 24 129 23 180 146 222 234 220 154 144 138 269 84 119 113
355 357 5 8 6 4 356 300 355 250 226 269 286 224 214 147 111 201 332 164 142 58 145 176 182 231 198 203 188 173 130 160 217 217 251 283 258 360 331 136 204 114 106 101
345 344 349 359 4 5 14 287 17 15 308 291 226 274 348 356 92 179 206 67 336 66 181 184 201 199 213 182 179 175 167 170 190 179 224 276 13 111 190 132 62 116 106 120
332 332 335 343 349 359 19 324 322 326 235 297 323 271 262 233 215 181 213 235 181 216 178 232 192 192 151 174 226 294 225 204 171 189 212 103 24 102 82 75 124 108 114 99
336 335 329 331 333 340 6 268 306 313 269 273 308 275 355 77 12 319 238 222 274 203 158 175 165 234 145 177 221 195 196 168 152 163 165 148 105 70 72 82 102 103 115 115
316 325 336 332 329 326 338 291 226 247 258 270 288 343 316 327 317 243 216 284 235 160 202 215 210 212 192 196 134 182 172 134 173 181 114 99 70 83 102 96 98 99 89 103
329 323 320 309 312 322 328 236 243 279 267 275 291 309 258 290 322 290 219 226 244 223 186 201 215 191 178 189 161 135 354 24 199 114 75 88 96 91 106 115 111 105 103 96
328 329 323 313 312 321 342 334 120 81 143 350 306 279 259 321 332 290 197 207 218 235 187 353 244 21 79 185 82 17 39 53 44 89 69 87 101 110 45 77 69 66 53 18
319 324 320 314 314 314 215 234 214 267 160 261 294 289 315 325 307 272 260 206 154 183 53 248 69 197 103 30 59 32 50 64 54 52 106 86 98 123 34 68 345 355 319 306
313 317 318 313 307 306 300 292 357 26 180 248 270 281 319 12 344 340 345 16 39 89 156 163 43 45 54 62 48 56 55 50 39 30 41 81 93 45 37 36 24 6 330 304
320 320 320 345 41 353 304 312 356 130 282 232 185 245 299 349 8 336 333 350 52 313 47 49 41 38 46 14 60 56 48 42 347 28 82 72 63 38 21 3 357 326 300 288
329 17 27 349 313 312 317 44 337 38 3 336 291 334 286 354 343 11 358 8 27 36 59 322 68 66 69 60 77 77 31 26 9 30 15 0 357 356 344 325 303 287 288 297
26 15 334 285 321 35 30 39 68 302 79 14 313 333 322 14 360 8 33 274 22 77 21 28 72 62 48 1 353 2 24 27 32 34 27 357 322 325 331 329 322 315 311 307
173 318 46 353 24 27 78 344 339 18 40 9 358 327 330 351 322 29 10 52 29 70 327 70 80 70 13 8 10 11 22 11 16 16 2 348 342 327 314 303 296 297 297 299
50 45 43 31 323 36 71 349 334 19 11 359 347 338 342 349 33 53 44 56 54 304 48 67 61 4 14 1 353 357 6 8 359 350 349 340 327 323 310 311 308 300 300 301
66 66 11 68 353 22 54 348 29 18 325 349 351 6 32 340 41 33 73 23 24 54 58 76 336 304 335 353 358 4 343 341 334 323 317 308 305 302 297 294 294 299 302 302
73 58 30 32 355 353 300 303 345 344 316 357 26 38 53 360 61 34 64 32 47 46 63 53 309 337 351 342 342 329 319 314 287 273 273 283 286 289 290 291 292 292 291 293
70 45 42 284 34 0 15 2 344 356 347 83 46 71 51 21 95 48 43 88 41 50 24 290 317 327 319 316 318 311 308 311 311 314 311 312 312 312 307 303 294 288 291 292
40 10 5 8 63 35 28 330 326 309 20 46 66 54 203 3 47 38 19 64 37 308 313 296 286 281 300 300 300 305 314 320 312 314 318 312 308 302 300 300 309 304 300 292